Home   Weather   Antioch   Past weeks

Flag for USA Past Weather in Antioch, California, USA — Yesterday and Last 2 Weeks

Now
60 °F

Clear.


Feels Like: 60 °F
Forecast: 57 / 80 °F
Wind: 5 mph from Northwest

Location: Buchanan Field

Current Time: Sep 28, 2016 at 11:50:14 PM

Latest Report: Sep 28, 2016 at 10:53 PM


Visibility: 10 mi

Pressure: 29.88 "Hg

Humidity: 69%

Dew Point: 50 °F

Location of AntiochLocation

Past Weather in Antioch — Graph

°F

Antioch Temperature Yesterday

Maximum temperature yesterday: 98 °F (at 3:53 PM)
Minimum temperature yesterday: 59 °F (at 6:53 AM)
Average temperature yesterday: 77 °F

High & Low Weather Summary for the Past Weeks

 TemperatureHumidityPressure
High99 °F (Sep 18, 4:53 PM)84% (Sep 17, 2:53 AM)30.11 "Hg (Sep 17, 2:53 AM)
Low53 °F (Sep 14, 6:53 AM)7% (Sep 26, 5:53 PM)29.74 "Hg (Sep 27, 5:53 PM)
Average72 °F45%29.92 "Hg
* Reported Sep 13 9:53 PM — Sep 28 9:53 PM, Antioch, Weather by CustomWeather, © 2016

Note: Actual official high and low records may vary slightly from our data, if they occured in-between our weather recording intervals... More about our weather records

Advertising

Antioch Weather History for the Previous 24 Hours

Scroll right to see more
 ConditionsComfort  
Time TempWeatherWind HumidityBarometerVisibility
9:53 PM
Wed, Sep 28
61 °FClear.7 mph70%29.87 "Hg10 mi
8:53 PM66 °FClear.12 mph56%29.85 "Hg10 mi
7:53 PM69 °FClear.12 mph51%29.83 "Hg10 mi
6:53 PM75 °FSunny.10 mph39%29.80 "Hg10 mi
5:53 PM83 °FSunny.9 mph28%29.79 "Hg10 mi
4:53 PM86 °FSunny.9 mph24%29.78 "Hg10 mi
3:53 PM88 °FSunny.15 mph22%29.78 "Hg10 mi
2:53 PM87 °FSunny.9 mph28%29.79 "Hg10 mi
1:53 PM81 °FSunny.9 mph39%29.80 "Hg10 mi
12:53 PM77 °FSunny.9 mph44%29.83 "Hg10 mi
11:53 AM73 °FSunny.12 mph51%29.84 "Hg10 mi
10:53 AM70 °FSunny.10 mph55%29.85 "Hg10 mi
9:53 AM68 °FSunny.8 mph61%29.85 "Hg10 mi
8:53 AM63 °FSunny.8 mph70%29.84 "Hg10 mi
7:53 AM59 °FSunny.No wind78%29.83 "Hg10 mi
6:53 AM58 °FClear.3 mph78%29.82 "Hg10 mi
5:53 AM59 °FClear.No wind75%29.80 "Hg10 mi
4:53 AM59 °FClear.No wind75%29.80 "Hg10 mi
3:53 AM59 °FClear.No wind75%29.79 "Hg10 mi
2:53 AM60 °FClear.7 mph75%29.80 "Hg10 mi
1:53 AM60 °FClear.5 mph75%29.80 "Hg10 mi
12:53 AM63 °FClear.5 mph70%29.80 "Hg10 mi
11:53 PM
Tue, Sep 27
65 °FClear.5 mph63%29.79 "Hg10 mi
Weather by CustomWeather, © 2016

See weather overviewHow to use our weather pages